owner,sensor,date,latitude,longitude,vertical_datum,direction_of_sea_water_velocity,sea_water_speed,upward_sea_water_velocity,qcFlag 
ADCP,ioos:station:wmo:42373:1,2008-10-01T00:10:00Z,27.3540,-94.6250,79.0,132.0,16.4,-9999.0,'11111222,11111222,99999999' 
ADCP,ioos:station:wmo:42373:1,2008-10-01T00:30:00Z,27.3540,-94.6250,79.0,120.0,17.3,-9999.0,'11111222,11111222,99999999' 
ADCP,ioos:station:wmo:42373:1,2008-10-01T00:50:00Z,27.3540,-94.6250,79.0,124.0,16.3,-9999.0,'11111222,11111222,99999999' 
ADCP,ioos:station:wmo:42373:1,2008-10-01T01:10:00Z,27.3540,-94.6250,79.0,124.0,16.7,-9999.0,'11111222,11111222,99999999' 
ADCP,ioos:station:wmo:42373:1,2008-10-01T01:30:00Z,27.3540,-94.6250,79.0,128.0,16.7,-9999.0,'11111222,11111222,99999999' 
ADCP,ioos:station:wmo:42373:1,2008-10-01T01:50:00Z,27.3540,-94.6250,79.0,131.0,16.4,-9999.0,'11111222,11111222,99999999' 
ADCP,ioos:station:wmo:42373:1,2008-10-01T02:10:00Z,27.3540,-94.6250,79.0,130.0,16.9,-9999.0,'11111222,11111222,99999999' 
ADCP,ioos:station:wmo:42373:1,2008-10-01T02:30:00Z,27.3540,-94.6250,79.0,133.0,16.8,-9999.0,'11111222,11111222,99999999' 
ADCP,ioos:station:wmo:42373:1,2008-10-01T02:50:00Z,27.3540,-94.6250,79.0,131.0,17.4,-9999.0,'11111222,11111222,99999999' 
ADCP,ioos:station:wmo:42373:1,2008-10-01T03:10:00Z,27.3540,-94.6250,79.0,132.0,17.1,-9999.0,'11111222,11111222,99999999' 
ADCP,ioos:station:wmo:42373:1,2008-10-01T03:30:00Z,27.3540,-94.6250,79.0,136.0,16.6,-9999.0,'11111222,11111222,99999999' 
ADCP,ioos:station:wmo:42373:1,2008-10-01T03:50:00Z,27.3540,-94.6250,79.0,136.0,16.8,-9999.0,'11111222,11111222,99999999' 
ADCP,ioos:station:wmo:42373:1,2008-10-01T04:10:00Z,27.3540,-94.6250,79.0,136.0,15.3,-9999.0,'11111222,11111222,99999999' 
ADCP,ioos:station:wmo:42373:1,2008-10-01T04:30:00Z,27.3540,-94.6250,79.0,136.0,15.8,-9999.0,'11111222,11111222,99999999' 
ADCP,ioos:station:wmo:42373:1,2008-10-01T04:50:00Z,27.3540,-94.6250,79.0,133.0,16.1,-9999.0,'11111222,11111222,99999999' 
ADCP,ioos:station:wmo:42373:1,2008-10-01T05:10:00Z,27.3540,-94.6250,79.0,134.0,15.4,-9999.0,'11111222,11111222,99999999' 
ADCP,ioos:station:wmo:42373:1,2008-10-01T05:30:00Z,27.3540,-94.6250,79.0,139.0,14.6,-9999.0,'11111222,11111222,99999999' 
ADCP,ioos:station:wmo:42373:1,2008-10-01T05:50:00Z,27.3540,-94.6250,79.0,133.0,15.2,-9999.0,'11111222,11111222,99999999' 
ADCP,ioos:station:wmo:42373:1,2008-10-01T06:10:00Z,27.3540,-94.6250,79.0,128.0,16.4,-9999.0,'11111222,11111222,99999999' 
ADCP,ioos:station:wmo:42373:1,2008-10-01T06:30:00Z,27.3540,-94.6250,79.0,126.0,17.7,-9999.0,'11111222,11111222,99999999' 
ADCP,ioos:station:wmo:42373:1,2008-10-01T06:50:00Z,27.3540,-94.6250,79.0,125.0,17.4,-9999.0,'11111222,11111222,99999999' 
ADCP,ioos:station:wmo:42373:1,2008-10-01T07:10:00Z,27.3540,-94.6250,79.0,128.0,16.9,-9999.0,'11111222,11111222,99999999' 
ADCP,ioos:station:wmo:42373:1,2008-10-01T07:30:00Z,27.3540,-94.6250,79.0,123.0,17.1,-9999.0,'11111222,11111222,99999999' 
ADCP,ioos:station:wmo:42373:1,2008-10-01T07:50:00Z,27.3540,-94.6250,79.0,127.0,16.1,-9999.0,'11111222,11111222,99999999' 
ADCP,ioos:station:wmo:42373:1,2008-10-01T08:10:00Z,27.3540,-94.6250,79.0,126.0,15.1,-9999.0,'11111222,11111222,99999999' 
ADCP,ioos:station:wmo:42373:1,2008-10-01T08:30:00Z,27.3540,-94.6250,79.0,127.0,14.7,-9999.0,'11111222,11111222,99999999' 
ADCP,ioos:station:wmo:42373:1,2008-10-01T08:50:00Z,27.3540,-94.6250,79.0,130.0,14.5,-9999.0,'11111222,11111222,99999999' 
ADCP,ioos:station:wmo:42373:1,2008-10-01T09:10:00Z,27.3540,-94.6250,79.0,131.0,15.3,-9999.0,'11111222,11111222,99999999' 
ADCP,ioos:station:wmo:42373:1,2008-10-01T09:30:00Z,27.3540,-94.6250,79.0,134.0,15.5,-9999.0,'11111222,11111222,99999999' 
ADCP,ioos:station:wmo:42373:1,2008-10-01T09:50:00Z,27.3540,-94.6250,79.0,132.0,16.1,-9999.0,'11111222,11111222,99999999' 
ADCP,ioos:station:wmo:42373:1,2008-10-01T10:10:00Z,27.3540,-94.6250,79.0,128.0,16.1,-9999.0,'11111222,11111222,99999999' 
ADCP,ioos:station:wmo:42373:1,2008-10-01T10:30:00Z,27.3540,-94.6250,79.0,125.0,16.8,-9999.0,'11111222,11111222,99999999' 
ADCP,ioos:station:wmo:42373:1,2008-10-01T10:50:00Z,27.3540,-94.6250,79.0,124.0,17.1,-9999.0,'11111222,11111222,99999999' 
ADCP,ioos:station:wmo:42373:1,2008-10-01T11:10:00Z,27.3540,-94.6250,79.0,123.0,17.3,-9999.0,'11111222,11111222,99999999' 
ADCP,ioos:station:wmo:42373:1,2008-10-01T11:30:00Z,27.3540,-94.6250,79.0,128.0,17.7,-9999.0,'11111222,11111222,99999999' 
ADCP,ioos:station:wmo:42373:1,2008-10-01T11:50:00Z,27.3540,-94.6250,79.0,128.0,17.0,-9999.0,'11111222,11111222,99999999' 
ADCP,ioos:station:wmo:42373:1,2008-10-01T12:10:00Z,27.3540,-94.6250,79.0,126.0,15.7,-9999.0,'11111222,11111222,99999999' 
ADCP,ioos:station:wmo:42373:1,2008-10-01T12:30:00Z,27.3540,-94.6250,79.0,145.0,12.6,-9999.0,'11111222,11111222,99999999' 
ADCP,ioos:station:wmo:42373:1,2008-10-01T12:50:00Z,27.3540,-94.6250,79.0,134.0,14.4,-9999.0,'11111222,11111222,99999999' 
ADCP,ioos:station:wmo:42373:1,2008-10-01T13:50:00Z,27.3540,-94.6250,79.0,133.0,15.1,-9999.0,'11111222,11111222,99999999' 
ADCP,ioos:station:wmo:42373:1,2008-10-01T14:10:00Z,27.3540,-94.6250,79.0,136.0,15.6,-9999.0,'11111222,11111222,99999999' 
ADCP,ioos:station:wmo:42373:1,2008-10-01T14:30:00Z,27.3540,-94.6250,79.0,140.0,15.1,-9999.0,'11111222,11111222,99999999' 
ADCP,ioos:station:wmo:42373:1,2008-10-01T14:50:00Z,27.3540,-94.6250,79.0,143.0,14.6,-9999.0,'11111222,11111222,99999999' 
ADCP,ioos:station:wmo:42373:1,2008-10-01T15:10:00Z,27.3540,-94.6250,79.0,138.0,15.2,-9999.0,'11111222,11111222,99999999' 
ADCP,ioos:station:wmo:42373:1,2008-10-01T15:30:00Z,27.3540,-94.6250,79.0,152.0,13.5,-9999.0,'11111222,11111222,99999999' 
ADCP,ioos:station:wmo:42373:1,2008-10-01T15:50:00Z,27.3540,-94.6250,79.0,147.0,14.1,-9999.0,'11111222,11111222,99999999' 
ADCP,ioos:station:wmo:42373:1,2008-10-01T16:10:00Z,27.3540,-94.6250,79.0,153.0,12.6,-9999.0,'11111222,11111222,99999999' 
ADCP,ioos:station:wmo:42373:1,2008-10-01T16:30:00Z,27.3540,-94.6250,79.0,152.0,12.7,-9999.0,'11111222,11111222,99999999' 
ADCP,ioos:station:wmo:42373:1,2008-10-01T16:50:00Z,27.3540,-94.6250,79.0,149.0,11.4,-9999.0,'11111222,11111222,99999999' 
ADCP,ioos:station:wmo:42373:1,2008-10-01T17:10:00Z,27.3540,-94.6250,79.0,150.0,11.3,-9999.0,'11111222,11111222,99999999' 
ADCP,ioos:station:wmo:42373:1,2008-10-01T17:30:00Z,27.3540,-94.6250,79.0,150.0,11.1,-9999.0,'11111222,11111222,99999999' 
ADCP,ioos:station:wmo:42373:1,2008-10-01T17:50:00Z,27.3540,-94.6250,79.0,135.0,11.1,-9999.0,'11111222,11111222,99999999' 
ADCP,ioos:station:wmo:42373:1,2008-10-01T18:10:00Z,27.3540,-94.6250,79.0,145.0,8.5,-9999.0,'11133222,11111222,99999999' 
ADCP,ioos:station:wmo:42373:1,2008-10-01T18:30:00Z,27.3540,-94.6250,79.0,145.0,8.7,-9999.0,'11133222,11111222,99999999' 
ADCP,ioos:station:wmo:42373:1,2008-10-01T18:50:00Z,27.3540,-94.6250,79.0,136.0,8.3,-9999.0,'11133222,11111222,99999999' 
ADCP,ioos:station:wmo:42373:1,2008-10-01T19:10:00Z,27.3540,-94.6250,79.0,130.0,7.8,-9999.0,'11133222,11111222,99999999' 
ADCP,ioos:station:wmo:42373:1,2008-10-01T19:30:00Z,27.3540,-94.6250,79.0,118.0,9.4,-9999.0,'11133222,11111222,99999999' 
ADCP,ioos:station:wmo:42373:1,2008-10-01T19:50:00Z,27.3540,-94.6250,79.0,124.0,8.7,-9999.0,'11133222,11111222,99999999' 
ADCP,ioos:station:wmo:42373:1,2008-10-01T20:10:00Z,27.3540,-94.6250,79.0,128.0,7.2,-9999.0,'11133222,11111222,99999999' 
ADCP,ioos:station:wmo:42373:1,2008-10-01T20:30:00Z,27.3540,-94.6250,79.0,117.0,7.9,-9999.0,'11133222,11111222,99999999' 
ADCP,ioos:station:wmo:42373:1,2008-10-01T20:50:00Z,27.3540,-94.6250,79.0,106.0,10.2,-9999.0,'11111222,11111222,99999999' 
ADCP,ioos:station:wmo:42373:1,2008-10-01T21:10:00Z,27.3540,-94.6250,79.0,105.0,8.5,-9999.0,'11133222,11111222,99999999' 
ADCP,ioos:station:wmo:42373:1,2008-10-01T21:30:00Z,27.3540,-94.6250,79.0,95.0,10.0,-9999.0,'11111222,11111222,99999999' 
ADCP,ioos:station:wmo:42373:1,2008-10-01T21:50:00Z,27.3540,-94.6250,79.0,97.0,10.9,-9999.0,'11111222,11111222,99999999' 
ADCP,ioos:station:wmo:42373:1,2008-10-01T22:10:00Z,27.3540,-94.6250,79.0,99.0,11.4,-9999.0,'11111222,11111222,99999999' 
ADCP,ioos:station:wmo:42373:1,2008-10-01T22:30:00Z,27.3540,-94.6250,79.0,97.0,11.3,-9999.0,'11111222,11111222,99999999' 
ADCP,ioos:station:wmo:42373:1,2008-10-01T22:50:00Z,27.3540,-94.6250,79.0,99.0,10.1,-9999.0,'11111222,11111222,99999999' 
ADCP,ioos:station:wmo:42373:1,2008-10-01T23:10:00Z,27.3540,-94.6250,79.0,91.0,11.8,-9999.0,'11111222,11111222,99999999' 
ADCP,ioos:station:wmo:42373:1,2008-10-01T23:30:00Z,27.3540,-94.6250,79.0,94.0,11.8,-9999.0,'11111222,11111222,99999999' 
ADCP,ioos:station:wmo:42373:1,2008-10-01T23:50:00Z,27.3540,-94.6250,79.0,92.0,13.0,-9999.0,'11111222,11111222,99999999' 
ADCP,ioos:station:wmo:42373:1,2008-10-02T00:10:00Z,27.3540,-94.6250,79.0,89.0,12.8,-9999.0,'11111222,11111222,99999999' 
ADCP,ioos:station:wmo:42373:1,2008-10-02T00:30:00Z,27.3540,-94.6250,79.0,87.0,12.9,-9999.0,'11111222,11111222,99999999' 
ADCP,ioos:station:wmo:42373:1,2008-10-02T00:50:00Z,27.3540,-94.6250,79.0,86.0,12.7,-9999.0,'11111222,11111222,99999999' 
ADCP,ioos:station:wmo:42373:1,2008-10-02T01:10:00Z,27.3540,-94.6250,79.0,87.0,13.7,-9999.0,'11111222,11111222,99999999' 
ADCP,ioos:station:wmo:42373:1,2008-10-02T01:30:00Z,27.3540,-94.6250,79.0,88.0,14.5,-9999.0,'11111222,11111222,99999999' 
ADCP,ioos:station:wmo:42373:1,2008-10-02T01:50:00Z,27.3540,-94.6250,79.0,87.0,14.0,-9999.0,'11111222,11111222,99999999' 
ADCP,ioos:station:wmo:42373:1,2008-10-02T02:10:00Z,27.3540,-94.6250,79.0,94.0,13.2,-9999.0,'11111222,11111222,99999999' 
ADCP,ioos:station:wmo:42373:1,2008-10-02T02:30:00Z,27.3540,-94.6250,79.0,98.0,13.1,-9999.0,'11111222,11111222,99999999' 
ADCP,ioos:station:wmo:42373:1,2008-10-02T02:50:00Z,27.3540,-94.6250,79.0,94.0,14.1,-9999.0,'11111222,11111222,99999999' 
ADCP,ioos:station:wmo:42373:1,2008-10-02T03:10:00Z,27.3540,-94.6250,79.0,94.0,20.6,-9999.0,'11111222,11111222,99999999' 
ADCP,ioos:station:wmo:42373:1,2008-10-02T03:30:00Z,27.3540,-94.6250,79.0,92.0,20.9,-9999.0,'11111222,11111222,99999999' 
ADCP,ioos:station:wmo:42373:1,2008-10-02T03:50:00Z,27.3540,-94.6250,79.0,94.0,21.8,-9999.0,'11111222,11111222,99999999' 
ADCP,ioos:station:wmo:42373:1,2008-10-02T04:10:00Z,27.3540,-94.6250,79.0,96.0,21.8,-9999.0,'11111222,11111222,99999999' 
ADCP,ioos:station:wmo:42373:1,2008-10-02T04:30:00Z,27.3540,-94.6250,79.0,98.0,22.9,-9999.0,'11111222,11111222,99999999' 
ADCP,ioos:station:wmo:42373:1,2008-10-02T04:50:00Z,27.3540,-94.6250,79.0,99.0,21.6,-9999.0,'11111222,11111222,99999999' 
ADCP,ioos:station:wmo:42373:1,2008-10-02T05:10:00Z,27.3540,-94.6250,79.0,99.0,21.0,-9999.0,'11111222,11111222,99999999' 
ADCP,ioos:station:wmo:42373:1,2008-10-02T05:30:00Z,27.3540,-94.6250,79.0,101.0,19.1,-9999.0,'11111222,11111222,99999999' 
ADCP,ioos:station:wmo:42373:1,2008-10-02T05:50:00Z,27.3540,-94.6250,79.0,98.0,20.3,-9999.0,'11111222,11111222,99999999' 
ADCP,ioos:station:wmo:42373:1,2008-10-02T06:10:00Z,27.3540,-94.6250,79.0,101.0,20.2,-9999.0,'11111222,11111222,99999999' 
ADCP,ioos:station:wmo:42373:1,2008-10-02T06:30:00Z,27.3540,-94.6250,79.0,101.0,19.3,-9999.0,'11111222,11111222,99999999' 
ADCP,ioos:station:wmo:42373:1,2008-10-02T06:50:00Z,27.3540,-94.6250,79.0,100.0,18.9,-9999.0,'11111222,11111222,99999999' 
ADCP,ioos:station:wmo:42373:1,2008-10-02T07:10:00Z,27.3540,-94.6250,79.0,100.0,18.1,-9999.0,'11111222,11111222,99999999' 
ADCP,ioos:station:wmo:42373:1,2008-10-02T07:30:00Z,27.3540,-94.6250,79.0,99.0,17.0,-9999.0,'11111222,11111222,99999999' 
ADCP,ioos:station:wmo:42373:1,2008-10-02T07:50:00Z,27.3540,-94.6250,79.0,94.0,15.0,-9999.0,'11111222,11111222,99999999' 
ADCP,ioos:station:wmo:42373:1,2008-10-02T08:10:00Z,27.3540,-94.6250,79.0,87.0,14.5,-9999.0,'11111222,11111222,99999999' 
ADCP,ioos:station:wmo:42373:1,2008-10-02T08:30:00Z,27.3540,-94.6250,79.0,92.0,13.3,-9999.0,'11111222,11111222,99999999' 
ADCP,ioos:station:wmo:42373:1,2008-10-02T08:50:00Z,27.3540,-94.6250,79.0,89.0,14.5,-9999.0,'11111222,11111222,99999999' 
ADCP,ioos:station:wmo:42373:1,2008-10-02T09:10:00Z,27.3540,-94.6250,79.0,90.0,13.0,-9999.0,'11111222,11111222,99999999' 
ADCP,ioos:station:wmo:42373:1,2008-10-02T09:30:00Z,27.3540,-94.6250,79.0,87.0,12.4,-9999.0,'11111222,11111222,99999999' 
ADCP,ioos:station:wmo:42373:1,2008-10-02T09:50:00Z,27.3540,-94.6250,79.0,90.0,10.7,-9999.0,'11111222,11111222,99999999' 
ADCP,ioos:station:wmo:42373:1,2008-10-02T10:10:00Z,27.3540,-94.6250,79.0,96.0,10.9,-9999.0,'11111222,11111222,99999999' 
ADCP,ioos:station:wmo:42373:1,2008-10-02T10:30:00Z,27.3540,-94.6250,79.0,92.0,11.5,-9999.0,'11111222,11111222,99999999' 
ADCP,ioos:station:wmo:42373:1,2008-10-02T10:50:00Z,27.3540,-94.6250,79.0,99.0,6.4,-9999.0,'11133222,11111222,99999999' 
ADCP,ioos:station:wmo:42373:1,2008-10-02T11:10:00Z,27.3540,-94.6250,79.0,89.0,9.5,-9999.0,'11133222,11111222,99999999' 
ADCP,ioos:station:wmo:42373:1,2008-10-02T11:30:00Z,27.3540,-94.6250,79.0,88.0,11.1,-9999.0,'11111222,11111222,99999999' 
ADCP,ioos:station:wmo:42373:1,2008-10-02T11:50:00Z,27.3540,-94.6250,79.0,80.0,8.9,-9999.0,'11133222,11111222,99999999' 
ADCP,ioos:station:wmo:42373:1,2008-10-02T12:10:00Z,27.3540,-94.6250,79.0,82.0,9.6,-9999.0,'11133222,11111222,99999999' 
ADCP,ioos:station:wmo:42373:1,2008-10-02T12:30:00Z,27.3540,-94.6250,79.0,83.0,12.2,-9999.0,'11111222,11111222,99999999' 
ADCP,ioos:station:wmo:42373:1,2008-10-02T12:50:00Z,27.3540,-94.6250,79.0,89.0,12.6,-9999.0,'11111222,11111222,99999999' 
ADCP,ioos:station:wmo:42373:1,2008-10-02T13:30:00Z,27.3540,-94.6250,79.0,90.0,13.8,-9999.0,'11111222,11111222,99999999' 
ADCP,ioos:station:wmo:42373:1,2008-10-02T13:50:00Z,27.3540,-94.6250,79.0,91.0,10.1,-9999.0,'11111222,11111222,99999999' 
ADCP,ioos:station:wmo:42373:1,2008-10-02T14:10:00Z,27.3540,-94.6250,79.0,87.0,11.0,-9999.0,'11111222,11111222,99999999' 
ADCP,ioos:station:wmo:42373:1,2008-10-02T14:30:00Z,27.3540,-94.6250,79.0,94.0,9.8,-9999.0,'11133222,11111222,99999999' 
ADCP,ioos:station:wmo:42373:1,2008-10-02T14:50:00Z,27.3540,-94.6250,79.0,91.0,10.7,-9999.0,'11111222,11111222,99999999' 
ADCP,ioos:station:wmo:42373:1,2008-10-02T15:10:00Z,27.3540,-94.6250,79.0,92.0,10.7,-9999.0,'11111222,11111222,99999999' 
ADCP,ioos:station:wmo:42373:1,2008-10-02T15:30:00Z,27.3540,-94.6250,79.0,87.0,8.4,-9999.0,'11133222,11111222,99999999' 
ADCP,ioos:station:wmo:42373:1,2008-10-02T15:50:00Z,27.3540,-94.6250,79.0,95.0,10.1,-9999.0,'11111222,11111222,99999999' 
ADCP,ioos:station:wmo:42373:1,2008-10-02T16:10:00Z,27.3540,-94.6250,79.0,97.0,9.1,-9999.0,'11133222,11111222,99999999' 
ADCP,ioos:station:wmo:42373:1,2008-10-02T16:30:00Z,27.3540,-94.6250,79.0,98.0,10.5,-9999.0,'11111222,11111222,99999999' 
ADCP,ioos:station:wmo:42373:1,2008-10-02T16:50:00Z,27.3540,-94.6250,79.0,102.0,9.6,-9999.0,'11133222,11111222,99999999' 
ADCP,ioos:station:wmo:42373:1,2008-10-02T17:10:00Z,27.3540,-94.6250,79.0,108.0,6.9,-9999.0,'11133222,11111222,99999999' 
ADCP,ioos:station:wmo:42373:1,2008-10-02T17:30:00Z,27.3540,-94.6250,79.0,112.0,9.5,-9999.0,'11133222,11111222,99999999' 
ADCP,ioos:station:wmo:42373:1,2008-10-02T17:50:00Z,27.3540,-94.6250,79.0,117.0,7.1,-9999.0,'11133222,11111222,99999999' 
ADCP,ioos:station:wmo:42373:1,2008-10-02T18:10:00Z,27.3540,-94.6250,79.0,110.0,6.7,-9999.0,'11133222,11111222,99999999' 
ADCP,ioos:station:wmo:42373:1,2008-10-02T18:30:00Z,27.3540,-94.6250,79.0,111.0,7.9,-9999.0,'11133222,11111222,99999999' 
ADCP,ioos:station:wmo:42373:1,2008-10-02T18:50:00Z,27.3540,-94.6250,79.0,97.0,9.1,-9999.0,'11133222,11111222,99999999' 
ADCP,ioos:station:wmo:42373:1,2008-10-02T19:10:00Z,27.3540,-94.6250,79.0,100.0,8.2,-9999.0,'11133222,11111222,99999999' 
ADCP,ioos:station:wmo:42373:1,2008-10-02T19:30:00Z,27.3540,-94.6250,79.0,110.0,8.1,-9999.0,'11133222,11111222,99999999' 
ADCP,ioos:station:wmo:42373:1,2008-10-02T19:50:00Z,27.3540,-94.6250,79.0,105.0,8.0,-9999.0,'11133222,11111222,99999999' 
ADCP,ioos:station:wmo:42373:1,2008-10-02T20:10:00Z,27.3540,-94.6250,79.0,89.0,8.0,-9999.0,'11133222,11111222,99999999' 
ADCP,ioos:station:wmo:42373:1,2008-10-02T20:30:00Z,27.3540,-94.6250,79.0,219.0,3.3,-9999.0,'11133222,11111222,99999999' 
ADCP,ioos:station:wmo:42373:1,2008-10-02T20:50:00Z,27.3540,-94.6250,79.0,88.0,7.4,-9999.0,'11133222,11111222,99999999' 
ADCP,ioos:station:wmo:42373:1,2008-10-02T21:10:00Z,27.3540,-94.6250,79.0,68.0,6.1,-9999.0,'11133222,11111222,99999999' 
ADCP,ioos:station:wmo:42373:1,2008-10-02T21:30:00Z,27.3540,-94.6250,79.0,164.0,2.9,-9999.0,'11133222,11111222,99999999' 
ADCP,ioos:station:wmo:42373:1,2008-10-02T21:50:00Z,27.3540,-94.6250,79.0,81.0,9.7,-9999.0,'11133222,11111222,99999999' 
ADCP,ioos:station:wmo:42373:1,2008-10-02T22:10:00Z,27.3540,-94.6250,79.0,73.0,9.8,-9999.0,'11133222,11111222,99999999' 
ADCP,ioos:station:wmo:42373:1,2008-10-02T22:30:00Z,27.3540,-94.6250,79.0,73.0,11.8,-9999.0,'11111222,11111222,99999999' 
ADCP,ioos:station:wmo:42373:1,2008-10-02T22:50:00Z,27.3540,-94.6250,79.0,72.0,10.2,-9999.0,'11111222,11111222,99999999' 
ADCP,ioos:station:wmo:42373:1,2008-10-02T23:10:00Z,27.3540,-94.6250,79.0,82.0,10.7,-9999.0,'11111222,11111222,99999999' 
ADCP,ioos:station:wmo:42373:1,2008-10-02T23:30:00Z,27.3540,-94.6250,79.0,79.0,11.0,-9999.0,'11111222,11111222,99999999' 
ADCP,ioos:station:wmo:42373:1,2008-10-02T23:50:00Z,27.3540,-94.6250,79.0,70.0,10.8,-9999.0,'11111222,11111222,99999999' 
ADCP,ioos:station:wmo:42373:1,2008-10-03T00:10:00Z,27.3540,-94.6250,79.0,60.0,11.7,-9999.0,'11111222,11111222,99999999' 
ADCP,ioos:station:wmo:42373:1,2008-10-03T00:30:00Z,27.3540,-94.6250,79.0,72.0,11.4,-9999.0,'11111222,11111222,99999999' 
ADCP,ioos:station:wmo:42373:1,2008-10-03T00:50:00Z,27.3540,-94.6250,79.0,67.0,12.3,-9999.0,'11111222,11111222,99999999' 
ADCP,ioos:station:wmo:42373:1,2008-10-03T01:10:00Z,27.3540,-94.6250,79.0,66.0,13.3,-9999.0,'11111222,11111222,99999999' 
ADCP,ioos:station:wmo:42373:1,2008-10-03T01:30:00Z,27.3540,-94.6250,79.0,68.0,13.9,-9999.0,'11111222,11111222,99999999' 
ADCP,ioos:station:wmo:42373:1,2008-10-03T01:50:00Z,27.3540,-94.6250,79.0,62.0,12.9,-9999.0,'11111222,11111222,99999999' 
ADCP,ioos:station:wmo:42373:1,2008-10-03T02:10:00Z,27.3540,-94.6250,79.0,61.0,14.6,-9999.0,'11111222,11111222,99999999' 
ADCP,ioos:station:wmo:42373:1,2008-10-03T02:30:00Z,27.3540,-94.6250,79.0,64.0,17.1,-9999.0,'11111222,11111222,99999999' 
ADCP,ioos:station:wmo:42373:1,2008-10-03T02:50:00Z,27.3540,-94.6250,79.0,66.0,16.4,-9999.0,'11111222,11111222,99999999' 
ADCP,ioos:station:wmo:42373:1,2008-10-03T03:10:00Z,27.3540,-94.6250,79.0,67.0,17.6,-9999.0,'11111222,11111222,99999999' 
ADCP,ioos:station:wmo:42373:1,2008-10-03T03:30:00Z,27.3540,-94.6250,79.0,68.0,16.9,-9999.0,'11111222,11111222,99999999' 
ADCP,ioos:station:wmo:42373:1,2008-10-03T03:50:00Z,27.3540,-94.6250,79.0,70.0,17.8,-9999.0,'11111222,11111222,99999999' 
ADCP,ioos:station:wmo:42373:1,2008-10-03T04:10:00Z,27.3540,-94.6250,79.0,70.0,18.1,-9999.0,'11111222,11111222,99999999' 
ADCP,ioos:station:wmo:42373:1,2008-10-03T04:30:00Z,27.3540,-94.6250,79.0,71.0,17.6,-9999.0,'11111222,11111222,99999999' 
ADCP,ioos:station:wmo:42373:1,2008-10-03T04:50:00Z,27.3540,-94.6250,79.0,74.0,17.0,-9999.0,'11111222,11111222,99999999' 
ADCP,ioos:station:wmo:42373:1,2008-10-03T05:10:00Z,27.3540,-94.6250,79.0,77.0,17.0,-9999.0,'11111222,11111222,99999999' 
ADCP,ioos:station:wmo:42373:1,2008-10-03T05:30:00Z,27.3540,-94.6250,79.0,77.0,16.2,-9999.0,'11111222,11111222,99999999' 
ADCP,ioos:station:wmo:42373:1,2008-10-03T05:50:00Z,27.3540,-94.6250,79.0,80.0,16.7,-9999.0,'11111222,11111222,99999999' 
ADCP,ioos:station:wmo:42373:1,2008-10-03T06:10:00Z,27.3540,-94.6250,79.0,83.0,16.9,-9999.0,'11111222,11111222,99999999' 
ADCP,ioos:station:wmo:42373:1,2008-10-03T06:30:00Z,27.3540,-94.6250,79.0,83.0,17.0,-9999.0,'11111222,11111222,99999999' 
ADCP,ioos:station:wmo:42373:1,2008-10-03T06:50:00Z,27.3540,-94.6250,79.0,85.0,18.9,-9999.0,'11111222,11111222,99999999' 
ADCP,ioos:station:wmo:42373:1,2008-10-03T07:10:00Z,27.3540,-94.6250,79.0,85.0,18.7,-9999.0,'11111222,11111222,99999999' 
ADCP,ioos:station:wmo:42373:1,2008-10-03T07:30:00Z,27.3540,-94.6250,79.0,88.0,20.1,-9999.0,'11111222,11111222,99999999' 
ADCP,ioos:station:wmo:42373:1,2008-10-03T07:50:00Z,27.3540,-94.6250,79.0,87.0,19.0,-9999.0,'11111222,11111222,99999999' 
ADCP,ioos:station:wmo:42373:1,2008-10-03T08:10:00Z,27.3540,-94.6250,79.0,90.0,20.9,-9999.0,'11111222,11111222,99999999' 
ADCP,ioos:station:wmo:42373:1,2008-10-03T08:30:00Z,27.3540,-94.6250,79.0,94.0,21.7,-9999.0,'11111222,11111222,99999999' 
ADCP,ioos:station:wmo:42373:1,2008-10-03T08:50:00Z,27.3540,-94.6250,79.0,95.0,22.4,-9999.0,'11111222,11111222,99999999' 
ADCP,ioos:station:wmo:42373:1,2008-10-03T09:10:00Z,27.3540,-94.6250,79.0,97.0,22.4,-9999.0,'11111222,11111222,99999999' 
ADCP,ioos:station:wmo:42373:1,2008-10-03T09:30:00Z,27.3540,-94.6250,79.0,96.0,23.2,-9999.0,'11111222,11111222,99999999' 
ADCP,ioos:station:wmo:42373:1,2008-10-03T09:50:00Z,27.3540,-94.6250,79.0,97.0,21.7,-9999.0,'11111222,11111222,99999999' 
ADCP,ioos:station:wmo:42373:1,2008-10-03T10:10:00Z,27.3540,-94.6250,79.0,95.0,22.1,-9999.0,'11111222,11111222,99999999' 
ADCP,ioos:station:wmo:42373:1,2008-10-03T10:30:00Z,27.3540,-94.6250,79.0,98.0,20.7,-9999.0,'11111222,11111222,99999999' 
ADCP,ioos:station:wmo:42373:1,2008-10-03T10:50:00Z,27.3540,-94.6250,79.0,96.0,20.1,-9999.0,'11111222,11111222,99999999' 
ADCP,ioos:station:wmo:42373:1,2008-10-03T11:10:00Z,27.3540,-94.6250,79.0,97.0,18.6,-9999.0,'11111222,11111222,99999999' 
ADCP,ioos:station:wmo:42373:1,2008-10-03T11:30:00Z,27.3540,-94.6250,79.0,93.0,18.0,-9999.0,'11111222,11111222,99999999' 
ADCP,ioos:station:wmo:42373:1,2008-10-03T11:50:00Z,27.3540,-94.6250,79.0,94.0,18.5,-9999.0,'11111222,11111222,99999999' 
ADCP,ioos:station:wmo:42373:1,2008-10-03T12:30:00Z,27.3540,-94.6250,79.0,91.0,17.7,-9999.0,'11111222,11111222,99999999' 
ADCP,ioos:station:wmo:42373:1,2008-10-03T12:50:00Z,27.3540,-94.6250,79.0,94.0,17.4,-9999.0,'11111222,11111222,99999999' 
ADCP,ioos:station:wmo:42373:1,2008-10-03T13:30:00Z,27.3540,-94.6250,79.0,92.0,17.2,-9999.0,'11111222,11111222,99999999' 
ADCP,ioos:station:wmo:42373:1,2008-10-03T13:50:00Z,27.3540,-94.6250,79.0,89.0,17.8,-9999.0,'11111222,11111222,99999999' 
ADCP,ioos:station:wmo:42373:1,2008-10-03T14:10:00Z,27.3540,-94.6250,79.0,93.0,17.8,-9999.0,'11111222,11111222,99999999' 
ADCP,ioos:station:wmo:42373:1,2008-10-03T14:30:00Z,27.3540,-94.6250,79.0,95.0,18.7,-9999.0,'11111222,11111222,99999999' 
ADCP,ioos:station:wmo:42373:1,2008-10-03T14:50:00Z,27.3540,-94.6250,79.0,92.0,18.3,-9999.0,'11111222,11111222,99999999' 
ADCP,ioos:station:wmo:42373:1,2008-10-03T15:10:00Z,27.3540,-94.6250,79.0,92.0,18.1,-9999.0,'11111222,11111222,99999999' 
ADCP,ioos:station:wmo:42373:1,2008-10-03T15:30:00Z,27.3540,-94.6250,79.0,96.0,19.6,-9999.0,'11111222,11111222,99999999' 
ADCP,ioos:station:wmo:42373:1,2008-10-03T15:50:00Z,27.3540,-94.6250,79.0,103.0,20.1,-9999.0,'11111222,11111222,99999999' 
ADCP,ioos:station:wmo:42373:1,2008-10-03T16:30:00Z,27.3540,-94.6250,79.0,104.0,19.6,-9999.0,'11111222,11111222,99999999' 
ADCP,ioos:station:wmo:42373:1,2008-10-03T16:50:00Z,27.3540,-94.6250,79.0,103.0,19.0,-9999.0,'11111222,11111222,99999999' 
ADCP,ioos:station:wmo:42373:1,2008-10-03T17:10:00Z,27.3540,-94.6250,79.0,102.0,19.0,-9999.0,'11111222,11111222,99999999' 
ADCP,ioos:station:wmo:42373:1,2008-10-03T17:30:00Z,27.3540,-94.6250,79.0,102.0,18.9,-9999.0,'11111222,11111222,99999999' 
ADCP,ioos:station:wmo:42373:1,2008-10-03T17:50:00Z,27.3540,-94.6250,79.0,103.0,17.7,-9999.0,'11111222,11111222,99999999' 
ADCP,ioos:station:wmo:42373:1,2008-10-03T18:10:00Z,27.3540,-94.6250,79.0,102.0,15.5,-9999.0,'11111222,11111222,99999999' 
ADCP,ioos:station:wmo:42373:1,2008-10-03T18:30:00Z,27.3540,-94.6250,79.0,102.0,14.7,-9999.0,'11111222,11111222,99999999' 
ADCP,ioos:station:wmo:42373:1,2008-10-03T18:50:00Z,27.3540,-94.6250,79.0,103.0,14.8,-9999.0,'11111222,11111222,99999999' 
ADCP,ioos:station:wmo:42373:1,2008-10-03T19:10:00Z,27.3540,-94.6250,79.0,103.0,12.6,-9999.0,'11111222,11111222,99999999' 